WST551 MYNN-KFLL

Flight info

Callsign WST551
Flight time 0h 45m
Altitude 26000
Route PEACH OLAHS3
Aircraft E75L/M-SDE3GILORVW/S

Departure

Time 2026-05-06 06:43
Airport Lynden Pindling International Airport (MYNN)

Arrival

Time 2026-05-06 07:29
Airport Fort Lauderdale Hollywood International Airport (KFLL)
Time Latitude Longitude Altitude Speed Heading
2026-05-06 06:20 25.05159 -77.46904 25 ft 0 kts 209°
2026-05-06 06:35 25.05157 -77.46906 25 ft 0 kts 223°
2026-05-06 06:36 25.05156 -77.46917 25 ft 1 kts 289°
2026-05-06 06:36 25.05170 -77.46935 25 ft 4 kts 311°
2026-05-06 06:36 25.05182 -77.46968 25 ft 5 kts 258°
2026-05-06 06:36 25.05152 -77.47004 25 ft 7 kts 222°
2026-05-06 06:37 25.05107 -77.47047 25 ft 9 kts 221°
2026-05-06 06:37 25.05053 -77.47098 25 ft 11 kts 213°
2026-05-06 06:37 25.04981 -77.47085 25 ft 12 kts 135°
2026-05-06 06:37 25.04915 -77.47014 25 ft 14 kts 134°
2026-05-06 06:38 25.04843 -77.46931 25 ft 15 kts 134°
2026-05-06 06:38 25.04760 -77.46838 25 ft 17 kts 135°
2026-05-06 06:38 25.04668 -77.46738 25 ft 19 kts 136°
2026-05-06 06:38 25.04568 -77.46629 25 ft 20 kts 135°
2026-05-06 06:39 25.04463 -77.46512 25 ft 22 kts 133°
2026-05-06 06:39 25.04350 -77.46386 24 ft 23 kts 135°
2026-05-06 06:39 25.04229 -77.46253 24 ft 25 kts 135°
2026-05-06 06:39 25.04103 -77.46114 24 ft 26 kts 135°
2026-05-06 06:40 25.03974 -77.45969 23 ft 26 kts 133°
2026-05-06 06:40 25.03839 -77.45821 23 ft 27 kts 137°
2026-05-06 06:40 25.03714 -77.45684 23 ft 25 kts 131°
2026-05-06 06:40 25.03585 -77.45544 22 ft 26 kts 140°
2026-05-06 06:41 25.03458 -77.45399 22 ft 22 kts 132°
2026-05-06 06:41 25.03347 -77.45272 22 ft 20 kts 135°
2026-05-06 06:41 25.03284 -77.45206 21 ft 10 kts 142°
2026-05-06 06:41 25.03213 -77.45180 21 ft 12 kts 182°
2026-05-06 06:42 25.03124 -77.45196 21 ft 13 kts 200°
2026-05-06 06:42 25.03087 -77.45235 21 ft 2 kts 282°
2026-05-06 06:42 25.03105 -77.45258 21 ft 12 kts 313°
2026-05-06 06:42 25.03345 -77.45525 22 ft 84 kts 314°
2026-05-06 06:43 25.03909 -77.46152 24 ft 141 kts 315°
2026-05-06 06:43 25.04631 -77.46964 394 ft 144 kts 312°
2026-05-06 06:43 25.05280 -77.47744 935 ft 147 kts 312°
2026-05-06 06:43 25.06100 -77.48621 1152 ft 178 kts 317°
2026-05-06 06:44 25.07023 -77.49613 1607 ft 195 kts 315°
2026-05-06 06:44 25.08042 -77.50738 2071 ft 218 kts 314°
2026-05-06 06:44 25.09172 -77.51984 2594 ft 240 kts 318°
2026-05-06 06:44 25.10610 -77.53024 3108 ft 253 kts 327°
2026-05-06 06:45 25.12090 -77.54102 3595 ft 260 kts 325°
2026-05-06 06:45 25.13608 -77.55231 4084 ft 267 kts 324°
2026-05-06 06:45 25.15170 -77.56400 4575 ft 274 kts 324°
2026-05-06 06:45 25.16755 -77.57589 5058 ft 279 kts 324°
2026-05-06 06:46 25.18334 -77.58772 5528 ft 267 kts 324°
2026-05-06 06:46 25.19840 -77.59901 5993 ft 258 kts 323°
2026-05-06 06:46 25.21305 -77.61002 6462 ft 253 kts 323°
2026-05-06 06:46 25.22765 -77.62098 6934 ft 249 kts 323°
2026-05-06 06:47 25.24188 -77.63167 7423 ft 244 kts 323°
2026-05-06 06:47 25.25547 -77.64188 8010 ft 234 kts 323°
2026-05-06 06:47 25.26857 -77.65172 8587 ft 224 kts 323°
2026-05-06 06:47 25.28121 -77.66122 9171 ft 214 kts 323°
2026-05-06 06:48 25.29343 -77.67042 9766 ft 214 kts 322°
2026-05-06 06:48 25.30570 -77.67964 10359 ft 213 kts 323°
2026-05-06 06:48 25.31774 -77.68870 10946 ft 212 kts 323°
2026-05-06 06:48 25.32982 -77.69778 11536 ft 209 kts 322°
2026-05-06 06:49 25.34172 -77.70674 12125 ft 207 kts 323°
2026-05-06 06:49 25.35354 -77.71563 12687 ft 206 kts 323°
2026-05-06 06:49 25.36541 -77.72458 13209 ft 206 kts 323°
2026-05-06 06:49 25.37706 -77.73334 13725 ft 205 kts 323°
2026-05-06 06:50 25.38894 -77.74230 14162 ft 209 kts 323°
2026-05-06 06:50 25.40112 -77.75148 14528 ft 216 kts 323°
2026-05-06 06:50 25.41377 -77.76102 14899 ft 224 kts 323°
2026-05-06 06:50 25.42627 -77.77152 15260 ft 229 kts 309°
2026-05-06 06:51 25.43293 -77.78735 15674 ft 233 kts 284°
2026-05-06 06:51 25.43671 -77.80502 16048 ft 239 kts 285°
2026-05-06 06:51 25.44070 -77.82316 16413 ft 246 kts 285°
2026-05-06 06:51 25.44477 -77.84169 16779 ft 253 kts 285°
2026-05-06 06:52 25.44899 -77.86094 17146 ft 259 kts 285°
2026-05-06 06:52 25.45327 -77.88045 17505 ft 265 kts 286°
2026-05-06 06:52 25.45764 -77.90036 17864 ft 271 kts 286°
2026-05-06 06:52 25.46213 -77.92085 18226 ft 277 kts 286°
2026-05-06 06:53 25.46669 -77.94170 18583 ft 282 kts 285°
2026-05-06 06:53 25.47133 -77.96291 18940 ft 287 kts 286°
2026-05-06 06:53 25.47605 -77.98453 19295 ft 291 kts 286°
2026-05-06 06:53 25.48081 -78.00630 19648 ft 295 kts 286°
2026-05-06 06:54 25.48561 -78.02830 20000 ft 299 kts 286°
2026-05-06 06:54 25.49053 -78.05087 20351 ft 302 kts 287°
2026-05-06 06:54 25.49550 -78.07370 20700 ft 305 kts 287°
2026-05-06 06:54 25.50044 -78.09637 21044 ft 308 kts 287°
2026-05-06 06:55 25.50552 -78.11972 21400 ft 311 kts 287°
2026-05-06 06:55 25.51057 -78.14294 21741 ft 313 kts 287°
2026-05-06 06:55 25.51570 -78.16653 21922 ft 321 kts 287°
2026-05-06 06:55 25.52100 -78.19094 21938 ft 333 kts 287°
2026-05-06 06:56 25.52644 -78.21600 21942 ft 345 kts 287°
2026-05-06 06:56 25.53214 -78.24230 21939 ft 356 kts 287°
2026-05-06 06:56 25.53807 -78.26950 21940 ft 367 kts 287°
2026-05-06 06:56 25.54408 -78.29697 21939 ft 376 kts 287°
2026-05-06 06:57 25.55030 -78.32546 21942 ft 385 kts 286°
2026-05-06 06:57 25.55661 -78.35438 21938 ft 393 kts 286°
2026-05-06 06:57 25.56309 -78.38410 21940 ft 400 kts 286°
2026-05-06 06:57 25.56968 -78.41441 21938 ft 407 kts 286°
2026-05-06 06:58 25.57631 -78.44484 21937 ft 413 kts 286°
2026-05-06 06:58 25.58298 -78.47560 21931 ft 404 kts 286°
2026-05-06 06:58 25.58946 -78.50551 21931 ft 392 kts 286°
2026-05-06 06:58 25.59569 -78.53424 21931 ft 382 kts 286°
2026-05-06 06:59 25.60181 -78.56247 21930 ft 373 kts 287°
2026-05-06 06:59 25.60778 -78.59006 21930 ft 364 kts 287°
2026-05-06 06:59 25.61361 -78.61702 21930 ft 356 kts 287°
2026-05-06 06:59 25.61929 -78.64333 21935 ft 350 kts 287°
2026-05-06 07:00 25.62491 -78.66936 21941 ft 343 kts 287°
2026-05-06 07:00 25.63041 -78.69487 21938 ft 338 kts 287°
2026-05-06 07:00 25.63584 -78.72006 21939 ft 333 kts 287°
2026-05-06 07:00 25.64117 -78.74484 21938 ft 328 kts 287°
2026-05-06 07:01 25.64636 -78.76899 21941 ft 324 kts 287°
2026-05-06 07:01 25.65158 -78.79326 21943 ft 320 kts 287°
2026-05-06 07:01 25.65671 -78.81717 21944 ft 317 kts 287°
2026-05-06 07:01 25.66174 -78.84060 21724 ft 319 kts 287°
2026-05-06 07:02 25.66686 -78.86447 21262 ft 318 kts 287°
2026-05-06 07:02 25.67197 -78.88837 20799 ft 317 kts 287°
2026-05-06 07:02 25.67699 -78.91179 20346 ft 316 kts 287°
2026-05-06 07:02 25.68210 -78.93569 19884 ft 316 kts 287°
2026-05-06 07:03 25.68711 -78.95912 19422 ft 315 kts 287°
2026-05-06 07:03 25.69214 -78.98274 18962 ft 314 kts 286°
2026-05-06 07:03 25.69714 -79.00617 18501 ft 313 kts 286°
2026-05-06 07:03 25.70209 -79.02940 18039 ft 313 kts 285°
2026-05-06 07:04 25.70707 -79.05278 17572 ft 312 kts 285°
2026-05-06 07:04 25.71202 -79.07610 17105 ft 312 kts 285°
2026-05-06 07:04 25.71700 -79.09951 16632 ft 311 kts 285°
2026-05-06 07:04 25.72193 -79.12274 16158 ft 311 kts 285°
2026-05-06 07:05 25.72683 -79.14583 15688 ft 310 kts 285°
2026-05-06 07:05 25.73177 -79.16914 15213 ft 309 kts 285°
2026-05-06 07:05 25.73662 -79.19208 14735 ft 308 kts 285°
2026-05-06 07:05 25.74151 -79.21513 14266 ft 308 kts 285°
2026-05-06 07:06 25.74638 -79.23818 13788 ft 307 kts 284°
2026-05-06 07:06 25.75122 -79.26109 13317 ft 306 kts 284°
2026-05-06 07:06 25.75605 -79.28397 12839 ft 305 kts 284°
2026-05-06 07:06 25.76182 -79.30643 12364 ft 304 kts 288°
2026-05-06 07:07 25.76785 -79.32909 11774 ft 307 kts 287°
2026-05-06 07:07 25.77381 -79.35158 11188 ft 309 kts 287°
2026-05-06 07:07 25.77991 -79.37457 10590 ft 310 kts 287°
2026-05-06 07:07 25.78596 -79.39744 9993 ft 311 kts 287°
2026-05-06 07:08 25.79203 -79.42038 9398 ft 312 kts 287°
2026-05-06 07:08 25.79811 -79.44338 8798 ft 312 kts 287°
2026-05-06 07:08 25.80423 -79.46654 8193 ft 312 kts 287°
2026-05-06 07:08 25.81016 -79.48902 7525 ft 297 kts 287°
2026-05-06 07:09 25.81575 -79.51022 6915 ft 279 kts 287°
2026-05-06 07:09 25.82099 -79.53012 6310 ft 267 kts 287°
2026-05-06 07:09 25.82609 -79.54946 5981 ft 248 kts 287°
2026-05-06 07:09 25.83081 -79.56741 5957 ft 239 kts 287°
2026-05-06 07:10 25.83547 -79.58509 5953 ft 238 kts 287°
2026-05-06 07:10 25.84040 -79.60257 5952 ft 235 kts 293°
2026-05-06 07:10 25.84670 -79.61918 5953 ft 233 kts 294°
2026-05-06 07:10 25.85298 -79.63580 5952 ft 231 kts 294°
2026-05-06 07:11 25.85938 -79.65182 5952 ft 228 kts 296°
2026-05-06 07:11 25.86627 -79.66779 5953 ft 227 kts 296°
2026-05-06 07:11 25.87307 -79.68359 5955 ft 225 kts 296°
2026-05-06 07:11 25.87973 -79.69910 5956 ft 224 kts 296°
2026-05-06 07:12 25.88649 -79.71483 5953 ft 222 kts 296°
2026-05-06 07:12 25.89310 -79.73023 5954 ft 221 kts 296°
2026-05-06 07:12 25.89964 -79.74554 5954 ft 220 kts 296°
2026-05-06 07:12 25.90620 -79.76090 5952 ft 219 kts 295°
2026-05-06 07:13 25.91264 -79.77602 5954 ft 218 kts 296°
2026-05-06 07:13 25.91911 -79.79120 5954 ft 217 kts 296°
2026-05-06 07:13 25.92561 -79.80644 5954 ft 216 kts 296°
2026-05-06 07:13 25.93202 -79.82149 5955 ft 215 kts 296°
2026-05-06 07:14 25.93839 -79.83646 5957 ft 215 kts 296°
2026-05-06 07:14 25.94477 -79.85143 5956 ft 214 kts 296°
2026-05-06 07:14 25.95132 -79.86684 5558 ft 234 kts 296°
2026-05-06 07:14 25.95857 -79.88386 5036 ft 255 kts 296°
2026-05-06 07:15 25.96639 -79.90226 4503 ft 270 kts 296°
2026-05-06 07:15 25.97445 -79.92123 3931 ft 270 kts 296°
2026-05-06 07:15 25.98235 -79.93984 3445 ft 267 kts 296°
2026-05-06 07:15 25.99178 -79.95740 3028 ft 260 kts 313°
2026-05-06 07:16 26.00337 -79.97166 2949 ft 243 kts 313°
2026-05-06 07:16 26.01437 -79.98530 2949 ft 227 kts 314°
2026-05-06 07:16 26.02476 -79.99813 2980 ft 222 kts 314°
2026-05-06 07:16 26.03509 -80.01088 2964 ft 222 kts 314°
2026-05-06 07:17 26.04537 -80.02357 2963 ft 222 kts 314°
2026-05-06 07:17 26.05569 -80.03632 2963 ft 221 kts 313°
2026-05-06 07:17 26.06596 -80.04902 2963 ft 221 kts 314°
2026-05-06 07:17 26.07629 -80.06178 2964 ft 221 kts 314°
2026-05-06 07:18 26.08657 -80.07449 2964 ft 220 kts 313°
2026-05-06 07:18 26.09694 -80.08732 2963 ft 220 kts 313°
2026-05-06 07:18 26.10707 -80.09985 2964 ft 220 kts 314°
2026-05-06 07:18 26.11741 -80.11265 2965 ft 220 kts 313°
2026-05-06 07:19 26.12764 -80.12531 2965 ft 220 kts 313°
2026-05-06 07:19 26.13786 -80.13797 2965 ft 220 kts 314°
2026-05-06 07:19 26.14743 -80.15118 2960 ft 221 kts 297°
2026-05-06 07:19 26.15029 -80.16791 2985 ft 221 kts 270°
2026-05-06 07:20 26.15031 -80.18488 2967 ft 222 kts 271°
2026-05-06 07:20 26.15039 -80.20209 2964 ft 222 kts 271°
2026-05-06 07:20 26.15048 -80.21944 2966 ft 222 kts 271°
2026-05-06 07:20 26.15055 -80.23659 2965 ft 222 kts 271°
2026-05-06 07:21 26.15063 -80.25339 3035 ft 211 kts 271°
2026-05-06 07:21 26.15069 -80.26949 2959 ft 204 kts 271°
2026-05-06 07:21 26.15076 -80.28501 2955 ft 194 kts 271°
2026-05-06 07:21 26.15081 -80.29962 2956 ft 186 kts 271°
2026-05-06 07:22 26.15087 -80.31376 2953 ft 178 kts 271°
2026-05-06 07:22 26.15092 -80.32736 2954 ft 172 kts 271°
2026-05-06 07:22 26.15097 -80.34041 2954 ft 165 kts 271°
2026-05-06 07:22 26.14857 -80.35249 2950 ft 158 kts 235°
2026-05-06 07:23 26.13993 -80.35931 2963 ft 157 kts 189°
2026-05-06 07:23 26.12924 -80.35794 2995 ft 158 kts 158°
2026-05-06 07:23 26.11850 -80.35364 2983 ft 168 kts 158°
2026-05-06 07:23 26.10724 -80.34888 2979 ft 177 kts 156°
2026-05-06 07:24 26.09525 -80.34368 2977 ft 185 kts 156°
2026-05-06 07:24 26.08358 -80.33733 2959 ft 189 kts 137°
2026-05-06 07:24 26.07778 -80.32533 2955 ft 166 kts 95°
2026-05-06 07:24 26.07748 -80.31390 2950 ft 137 kts 89°
2026-05-06 07:25 26.07756 -80.30296 2589 ft 143 kts 88°
2026-05-06 07:25 26.07758 -80.29235 2386 ft 135 kts 89°
2026-05-06 07:25 26.07732 -80.28209 2197 ft 132 kts 90°
2026-05-06 07:25 26.07733 -80.27163 2090 ft 140 kts 88°
2026-05-06 07:26 26.07759 -80.26054 1996 ft 145 kts 87°
2026-05-06 07:26 26.07751 -80.24929 1981 ft 143 kts 90°
2026-05-06 07:26 26.07704 -80.23814 1906 ft 146 kts 92°
2026-05-06 07:26 26.07683 -80.22720 1623 ft 135 kts 89°
2026-05-06 07:27 26.07676 -80.21736 1287 ft 127 kts 89°
2026-05-06 07:27 26.07698 -80.20718 1139 ft 133 kts 87°
2026-05-06 07:27 26.07710 -80.19694 884 ft 130 kts 89°
2026-05-06 07:27 26.07711 -80.18719 603 ft 126 kts 90°
2026-05-06 07:28 26.07702 -80.17735 310 ft 125 kts 89°
2026-05-06 07:28 26.07700 -80.16744 101 ft 129 kts 90°
2026-05-06 07:28 26.07685 -80.15048 8 ft 74 kts 90°
2026-05-06 07:29 26.07649 -80.14645 8 ft 34 kts 109°
2026-05-06 07:29 26.07563 -80.14447 8 ft 25 kts 103°
2026-05-06 07:29 26.07558 -80.14311 8 ft 13 kts 91°
2026-05-06 07:29 26.07556 -80.14202 8 ft 14 kts 91°
2026-05-06 07:30 26.07555 -80.14082 8 ft 16 kts 89°
2026-05-06 07:30 26.07555 -80.13957 8 ft 15 kts 95°
2026-05-06 07:30 26.07516 -80.13840 8 ft 16 kts 100°
2026-05-06 07:30 26.07505 -80.13735 8 ft 11 kts 135°
2026-05-06 07:31 26.07466 -80.13665 8 ft 12 kts 91°
2026-05-06 07:31 26.07443 -80.13605 8 ft 4 kts 146°
2026-05-06 07:31 26.07434 -80.13598 8 ft 0 kts 144°